[[{"header":{"parameterUnit":"m.s-1","parameterCategory":1,"la1":30.2991,"la2":30.254,"lo1":-89.0895,"lo2":-89.0444,"dy":0.0017,"dx":0.0017,"nx":28,"ny":28,"refTime":"2025-03-14T03:00:00:Z","depth":0,"parameterNumber":2,"parameterNumberName":"U-component_of_WINDS"},"data":[0,0,0,0,0,0,0,0,0,0,0,0,0,0,0,0,0,0,0,0,0,0,0,0,0,0,0,0,0,0,0,0,0,0,0,0,0,0,0,0,0,0,0,0,0,0,0,0,0,0,0,0,0,0,0,0,0,0,-3.6046,-3.6048,0,-3.6235,-3.6237,-3.6239,-3.631,-3.6309,-3.6309,-3.6308,-3.6499,-3.6505,-3.6511,0,0,0,0,0,0,0,0,0,0,0,0,0,-3.5746,-3.5751,-3.6046,-3.6048,-3.6051,-3.6234,-3.6237,-3.624,-3.631,-3.6309,-3.6308,-3.6308,-3.6498,-3.6504,-3.6511,0,0,0,0,0,0,0,0,0,0,0,0,0,-3.5899,-3.5753,-3.6046,-3.6108,-3.6115,-3.6234,-3.6237,-3.624,-3.631,-3.6309,-3.6308,-3.6307,-3.6495,-3.6504,-3.6512,-3.6582,0,0,-3.6538,-3.6541,0,0,0,0,0,0,0,0,-3.589,-3.591,-3.6096,-3.6104,-3.6112,-3.6248,-3.6201,-3.6355,-3.631,-3.6236,-3.6308,-3.6307,-3.6416,-3.6431,-3.6469,-3.6591,-3.6599,-3.6539,-3.6544,-3.6547,-3.655,0,0,0,0,0,0,0,-3.588,-3.5903,-3.6121,-3.6099,-3.6109,-3.6126,-3.6147,-3.6231,-3.6329,-3.6242,-3.6248,-3.627,-3.6421,-3.646,-3.6474,-3.6602,-3.6538,-3.6546,-3.6551,-3.6554,-3.6791,-3.6793,0,0,0,0,0,0,-3.5859,-3.5893,-3.6115,-3.6126,-3.5997,-3.6132,-3.6156,-3.6205,-3.6328,-3.6346,-3.627,-3.6272,-3.6446,-3.6464,-3.648,-3.6571,-3.6547,-3.6555,-3.656,-3.679,-3.6792,-3.6793,0,0,0,0,0,0,-3.5852,-3.5878,-3.6107,-3.6011,-3.6042,-3.6139,-3.6194,-3.6209,-3.6249,-3.6349,-3.6367,-3.6293,-3.6446,-3.6469,-3.6556,-3.6578,-3.6559,-3.6567,-3.6789,-3.6791,-3.6792,-3.675,0,0,0,0,0,0,-3.5843,-3.5875,-3.5903,-3.6012,-3.6047,-3.618,-3.6195,-3.6214,-3.6264,-3.6268,-3.6375,-3.6392,-3.6447,-3.6543,-3.6565,-3.6589,-3.6573,-3.6787,-3.679,-3.6792,-3.675,-3.6751,-3.6751,0,0,0,0,0,-3.5832,-3.5883,-3.5904,-3.593,-3.6083,-3.6181,-3.6201,-3.6264,-3.6265,-3.6294,-3.6358,-3.6388,-3.6572,-3.6552,-3.6576,-3.6604,-3.6786,-3.6789,-3.6792,-3.675,-3.6751,-3.6751,0,0,0,0,0,0,-3.5773,-3.5898,-3.5923,-3.601,-3.6084,-3.6193,-3.623,-3.6263,-3.6338,-3.6339,-3.6414,-3.6437,-3.6519,-3.6571,-3.6545,-3.6678,-3.6681,-3.6689,-3.6641,-3.6643,-3.6643,-3.6628,-3.658,0,0,0,0,0,-3.5771,-3.584,-3.5945,-3.6012,-3.6048,-3.6133,-3.6178,-3.622,-3.63,-3.6331,-3.6402,-3.6478,-3.6553,-3.6601,-3.6676,-3.6759,-3.6783,-3.679,-3.679,-3.679,-3.6795,-3.6843,-3.6848,-3.6802,-3.6802,-3.6802,0,0,-3.5765,-3.5842,-3.5881,-3.6002,-3.6065,-3.6134,-3.6159,-3.6231,-3.6283,-3.6342,-3.643,-3.6484,-3.6574,-3.666,-3.6701,-3.6705,-3.6814,-3.6793,-3.6792,-3.6798,-3.6847,-3.6851,-3.6855,-3.6804,-3.6804,-3.6803,0,0,-3.5791,-3.5856,-3.592,-3.5982,-3.6077,-3.6133,-3.6148,-3.6252,-3.6291,-3.638,-3.6426,-3.6489,-3.6617,-3.6679,-3.6727,-3.6778,-3.6809,-3.68,-3.6801,-3.6847,-3.6851,-3.6854,-3.6872,-3.6878,-3.6806,-3.6806,-3.6806,0,-3.5772,-3.588,-3.5948,-3.6018,-3.607,-3.6128,-3.6192,-3.6249,-3.6363,-3.6398,-3.6401,-3.6563,-3.6628,-3.6729,-3.6741,-3.6779,-3.6798,-3.6788,-3.6845,-3.6849,-3.6854,-3.6871,-3.6878,-3.6804,-3.6804,-3.6804,-3.6805,0,-3.5852,-3.5926,-3.5965,-3.6074,-3.6131,-3.6198,-3.6276,-3.6325,-3.6363,-3.6419,-3.6509,-3.6589,-3.668,-3.6708,-3.6745,-3.6815,-3.6814,-3.683,-3.6835,-3.6855,-3.6873,-3.688,-3.6802,-3.6802,-3.6803,-3.6803,0,0,-3.5845,-3.5992,-3.6005,-3.6056,-3.6165,-3.6223,-3.6293,-3.6384,-3.6424,-3.6501,-3.6561,-3.6669,-3.6685,-3.674,-3.6785,-3.6825,-3.686,-3.6837,-3.684,-3.6838,-3.6941,-3.6928,-3.6935,-3.6882,-3.6883,-3.6885,-3.6934,0,-3.5885,-3.6012,-3.6076,-3.6176,-3.6245,-3.6301,-3.6362,-3.6435,-3.649,-3.6556,-3.6616,-3.6691,-3.6706,-3.674,-3.6782,-3.6847,-3.6882,-3.6844,-3.6938,-3.694,-3.6913,-3.6944,-3.693,-3.6972,-3.6941,-3.6942,-3.6943,0,-3.5948,-3.6025,-3.6132,-3.6234,-3.6265,-3.6319,-3.6407,-3.647,-3.6555,-3.6592,-3.6653,-3.6698,-3.6773,-3.6773,-3.6878,-3.6851,-3.6894,-3.6931,-3.6934,-3.6945,-3.6942,-3.6954,-3.6987,-3.6993,-3.6955,-3.6954,-3.6953,0,-3.5931,-3.6062,-3.6143,-3.6185,-3.6306,-3.6342,-3.6394,-3.6478,-3.6529,-3.6606,-3.664,-3.6725,-3.6771,-3.6836,-3.6902,-3.6896,-3.7001,-3.7006,-3.7033,-3.7031,-3.7051,-3.7049,-3.709,-3.708,-3.708,-3.7079,-3.7079,0,-3.5969,-3.6032,-3.6137,-3.6187,-3.6259,-3.6332,-3.6402,-3.6458,-3.6533,-3.6594,-3.6648,-3.6705,-3.6789,-3.6856,-3.6909,-3.6988,-3.7008,-3.704,-3.7053,-3.7035,-3.703,-3.7062,-3.7061,-3.7081,-3.7081,-3.7081,-3.708,0,-3.5962,-3.6035,-3.6127,-3.6235,-3.6263,-3.6312,-3.6404,-3.6454,-3.6511,-3.6589,-3.6611,-3.6701,-3.6783,-3.6856,-3.6964,-3.6999,-3.708,-3.7096,-3.7051,-3.7058,-3.708,-3.7077,-3.7143,-3.7156,-3.7137,-3.7137,-3.7137,0,-3.5981,-3.603,-3.6144,-3.6189,-3.624,-3.6313,-3.6365,-3.6439,-3.6491,-3.6592,-3.663,-3.6716,-3.6789,-3.6917,-3.6992,-3.7075,-3.7093,-3.7111,-3.7106,-3.7086,-3.7093,-3.7089,-3.7094,-3.711,-3.711,-3.711,-3.711,0,-3.6006,-3.604,-3.6113,-3.62,-3.6261,-3.6332,-3.6405,-3.6439,-3.6527,-3.6583,-3.6667,-3.6724,-3.6835,-3.6919,-3.7011,-3.7065,-3.7102,-3.7111,-3.7121,-3.7103,-3.7074,-3.709,-3.7049,-3.7109,-3.7109,-3.7109,-3.7109,-3.7109,-3.6012,-3.6059,-3.6147,-3.6227,-3.629,-3.6357,-3.6409,-3.6474,-3.6546,-3.6642,-3.6682,-3.6768,-3.6852,-3.6979,-3.7033,-3.7101,-3.7108,-3.7123,-3.7127,-3.713,-3.7126,-3.7064,-3.7118,-3.7119,-3.7119,-3.7119,-3.7119,0,-3.604,-3.6099,-3.6172,-3.6273,-3.6336,-3.6366,-3.6449,-3.65,-3.6575,-3.6651,-3.6721,-3.6819,-3.6901,-3.6983,-3.707,-3.7109,-3.7128,-3.7129,-3.7127,-3.7138,-3.7115,-3.7097,-3.7112,-3.7112,-3.7112,-3.7112,-3.7112,-3.7112,-3.6062,-3.6143,-3.6188,-3.6301,-3.636,-3.6445,-3.6489,-3.6551,-3.6612,-3.6719,-3.6788,-3.6841,-3.6919,-3.7013,-3.709,-3.7112,-3.7141,-3.7137,-3.7163,-3.714,-3.714,-3.714,-3.7123,-3.7143,-3.7143,-3.7181,-3.7181,-3.7182]},{"header":{"parameterUnit":"m.s-1","parameterCategory":1,"la1":30.2991,"la2":30.254,"lo1":-89.0895,"lo2":-89.0444,"dy":0.0017,"dx":0.0017,"nx":28,"ny":28,"refTime":"2025-03-14T03:00:00:Z","depth":0,"parameterNumber":3,"parameterNumberName":"V-component_of_WINDS"},"data":[0,0,0,0,0,0,0,0,0,0,0,0,0,0,0,0,0,0,0,0,0,0,0,0,0,0,0,0,0,0,0,0,0,0,0,0,0,0,0,0,0,0,0,0,0,0,0,0,0,0,0,0,0,0,0,0,0,0,6.6697,6.6698,0,6.6807,6.6808,6.681,6.6791,6.6789,6.6788,6.6786,6.6894,6.6899,6.6903,0,0,0,0,0,0,0,0,0,0,0,0,0,6.6468,6.6472,6.6697,6.6698,6.67,6.6807,6.6808,6.681,6.6792,6.6789,6.6787,6.6785,6.6893,6.6898,6.6904,0,0,0,0,0,0,0,0,0,0,0,0,0,6.6572,6.6474,6.6697,6.6704,6.6705,6.6807,6.6808,6.681,6.6792,6.6789,6.6786,6.6784,6.6891,6.6898,6.6905,6.7005,0,0,6.6926,6.6929,0,0,0,0,0,0,0,0,6.6566,6.658,6.6701,6.6703,6.6705,6.6783,6.6768,6.6875,6.6793,6.6759,6.6786,6.6782,6.6859,6.6869,6.6895,6.701,6.7014,6.6927,6.6931,6.6934,6.6936,0,0,0,0,0,0,0,6.6559,6.6575,6.674,6.6703,6.6705,6.67,6.6712,6.6788,6.6824,6.6762,6.6761,6.6774,6.686,6.6889,6.6898,6.7016,6.6926,6.6933,6.6937,6.694,6.7222,6.7225,0,0,0,0,0,0,6.655,6.6569,6.6737,6.6744,6.6627,6.6707,6.672,6.6761,6.6823,6.683,6.6777,6.6773,6.6878,6.689,6.6902,6.7026,6.6934,6.694,6.6944,6.7218,6.7222,6.7226,0,0,0,0,0,0,6.6545,6.6565,6.6732,6.6656,6.6677,6.6714,6.676,6.6764,6.6793,6.6834,6.684,6.68,6.6876,6.6892,6.698,6.7029,6.6943,6.695,6.7214,6.7219,6.7224,6.7273,0,0,0,0,0,0,6.6539,6.6563,6.6602,6.6657,6.6681,6.681,6.6763,6.6769,6.6806,6.6802,6.6857,6.6864,6.6875,6.697,6.6987,6.7037,6.6955,6.721,6.7217,6.7222,6.7267,6.7279,6.7289,0,0,0,0,0,6.6531,6.661,6.6604,6.6625,6.6731,6.6813,6.6827,6.684,6.681,6.6849,6.6876,6.6862,6.7021,6.6979,6.6998,6.7051,6.7207,6.7215,6.7222,6.7262,6.7277,6.7289,0,0,0,0,0,0,6.6557,6.6617,6.6612,6.6711,6.6758,6.681,6.686,6.6854,6.6908,6.6902,6.6915,6.6927,6.7018,6.7043,6.6996,6.7153,6.711,6.7121,6.7134,6.7148,6.7158,6.7151,6.6961,0,0,0,0,0,6.6575,6.6638,6.6686,6.6769,6.6793,6.6823,6.6858,6.6865,6.6913,6.6932,6.6964,6.701,6.7071,6.711,6.7168,6.727,6.7283,6.7316,6.7327,6.7336,6.7346,6.7405,6.7421,6.725,6.725,6.725,0,0,6.6611,6.6652,6.669,6.6776,6.6812,6.6877,6.6839,6.6908,6.6956,6.6941,6.7029,6.7054,6.7106,6.7203,6.7248,6.7227,6.7396,6.7345,6.7352,6.7358,6.7414,6.7431,6.7445,6.7255,6.7254,6.7253,0,0,6.6712,6.6748,6.6824,6.6862,6.6919,6.6938,6.6956,6.701,6.7028,6.7116,6.7107,6.7164,6.7267,6.7305,6.7338,6.7457,6.7447,6.7475,6.7533,6.759,6.7604,6.7616,6.7661,6.7676,6.7485,6.7485,6.7485,0,6.675,6.6849,6.6862,6.6934,6.6973,6.6965,6.7041,6.7077,6.7149,6.7175,6.7151,6.7284,6.7317,6.7425,6.7454,6.748,6.7502,6.7469,6.7601,6.7613,6.7624,6.7667,6.7684,6.7488,6.7488,6.7487,6.7487,0,6.6894,6.6963,6.7016,6.7089,6.7133,6.7207,6.7232,6.7275,6.7278,6.73,6.739,6.7431,6.7499,6.7524,6.7526,6.7633,6.7619,6.7598,6.7555,6.7644,6.7685,6.7701,6.7493,6.7492,6.7491,6.749,0,0,6.7014,6.7096,6.7116,6.715,6.7213,6.7266,6.7339,6.7408,6.7446,6.7495,6.7558,6.7647,6.7629,6.7667,6.7673,6.7724,6.7819,6.7697,6.7698,6.772,6.7942,6.7959,6.7978,6.7812,6.7815,6.7818,6.7938,0,6.7123,6.7255,6.7271,6.7388,6.7453,6.7447,6.7512,6.7557,6.758,6.7638,6.7662,6.7727,6.7696,6.772,6.7769,6.7797,6.7864,6.7788,6.7872,6.7874,6.7861,6.7999,6.8017,6.8129,6.7954,6.7957,6.7959,0,6.7268,6.7325,6.745,6.7508,6.7535,6.7593,6.7658,6.7713,6.7765,6.7778,6.7822,6.7823,6.7899,6.7853,6.7959,6.7907,6.7942,6.7961,6.7966,6.7976,6.7923,6.8015,6.8164,6.8182,6.7983,6.7981,6.798,0,6.7347,6.7455,6.7545,6.7574,6.7642,6.7683,6.7713,6.7763,6.7804,6.786,6.7887,6.795,6.7986,6.8035,6.8053,6.8017,6.816,6.8114,6.8174,6.8174,6.8206,6.8204,6.8366,6.8224,6.8224,6.8224,6.8223,0,6.7468,6.7545,6.7582,6.7637,6.7724,6.7741,6.7826,6.7854,6.7898,6.7959,6.7956,6.8013,6.8033,6.8093,6.8107,6.8195,6.821,6.8223,6.8227,6.8225,6.8224,6.825,6.8244,6.8228,6.8227,6.8226,6.8225,0,6.7571,6.7598,6.7696,6.7754,6.777,6.7832,6.7881,6.7935,6.7958,6.8035,6.8054,6.8089,6.816,6.8184,6.8268,6.8278,6.8381,6.8376,6.8365,6.8366,6.8426,6.8421,6.8612,6.8639,6.8477,6.8479,6.848,0,6.7648,6.7708,6.7773,6.7815,6.7848,6.7914,6.7957,6.7976,6.802,6.8086,6.8132,6.8203,6.8261,6.8375,6.8408,6.8473,6.8471,6.8534,6.8481,6.8479,6.8476,6.8473,6.8481,6.8544,6.8546,6.8547,6.8548,0,6.7782,6.7794,6.7856,6.7925,6.7977,6.8031,6.8083,6.8117,6.8143,6.8193,6.8268,6.8313,6.8402,6.8473,6.854,6.857,6.8565,6.8565,6.8583,6.8583,6.8575,6.8583,6.8394,6.8561,6.8559,6.8558,6.8558,6.8557,6.7877,6.7931,6.7987,6.8057,6.8099,6.8149,6.8203,6.8234,6.8297,6.8372,6.8379,6.846,6.8512,6.8602,6.8636,6.8699,6.8682,6.8707,6.8714,6.872,6.8727,6.8563,6.8711,6.8711,6.871,6.871,6.871,0,6.8014,6.805,6.8115,6.819,6.8246,6.8237,6.8295,6.8342,6.8414,6.8464,6.8522,6.8608,6.8678,6.8717,6.8787,6.883,6.883,6.8848,6.8846,6.8854,6.8737,6.8716,6.8848,6.8848,6.8848,6.8848,6.8848,6.8848,6.8092,6.8185,6.8203,6.8317,6.8352,6.8433,6.8467,6.8513,6.8554,6.8651,6.871,6.8736,6.8782,6.8856,6.8919,6.8929,6.8956,6.8977,6.8985,6.8876,6.8862,6.8848,6.8829,6.8982,6.8982,6.9097,6.9098,6.9099]}]]